Location: ???????
(55.4231°N, 38.5570°E)
Time: 13:40:04
(UTC+00:00)

Meteor 1-28 Rocket - Pass Details

Date: 05 August 2024
Orbit: 467 x 482 km, 97.5° (Epoch: 18 September)

Event Time Altitude Azimuth Distance (km) Brightness Sun altitude
Exits shadow 22:47:28 - 127° (SE) 2,470 6.5 -15.9°
Reaches altitude 10° 22:49:36 10° 114° (ESE) 1,683 5.8 -15.8°
Drops below altitude 10° 22:55:20 10° 9° (N) 1,689 7.1 -15.5°
Enters shadow 23:51:43 -64° 166° (SSE) 11,991 10.0 -11.9°
Maximum altitude 00:25:34 45° 261° (W) 685 3.5 -8.9°
